METOP-A

Last updated on Tue Mar 15 2022 00:02:21 GMT+0000 (Coordinated Universal Time)

1 29499U 06044A 22073.56649630 .00000985 00000+0 14054-3 0 9998 2 29499 98.4644 115.1131 0197596 305.6410 171.7595 14.66983299796766

Satellite not in orbit

METOP-A